| time (UTC) | temp F | wind direction | speed MPH | gust MPH | rain 1hr in | rain 24hr in | rain mn in | humidity % | barometer mb |
| 20260503204505 | 62 | 248 | 0.0 | 10.0 | 0.00 | 0.00 | 0.00 | 42 | 1023.0 |
| 20260503203005 | 62 | 248 | 0.0 | 10.0 | 0.00 | 0.00 | 0.00 | 41 | 1023.0 |
| 20260503201505 | 64 | 158 | 0.0 | 10.0 | 0.00 | 0.00 | 0.00 | 41 | 1023.0 |
| 20260503200005 | 64 | 158 | 0.0 | 10.0 | 0.00 | 0.00 | 0.00 | 40 | 1023.0 |
| 20260503194505 | 65 | 158 | 0.0 | 10.0 | 0.00 | 0.00 | 0.00 | 40 | 1023.0 |
| 20260503193005 | 66 | 158 | 0.0 | 10.0 | 0.00 | 0.00 | 0.00 | 38 | 1023.0 |
| 20260503191505 | 67 | 158 | 0.0 | 10.0 | 0.00 | 0.00 | 0.00 | 36 | 1023.0 |
| 20260503190005 | 66 | 158 | 0.0 | 10.0 | 0.00 | 0.00 | 0.00 | 38 | 1023.0 |
| 20260503184505 | 67 | 158 | 0.0 | 10.0 | 0.00 | 0.00 | 0.00 | 40 | 1022.0 |
| 20260503183005 | 68 | 158 | 0.0 | 10.0 | 0.00 | 0.00 | 0.00 | 40 | 1022.0 |
| 20260503181505 | 68 | 158 | 0.0 | 10.0 | 0.00 | 0.00 | 0.00 | 40 | 1022.0 |
| 20260503180005 | 70 | 158 | 0.0 | 10.0 | 0.00 | 0.00 | 0.00 | 40 | 1022.0 |
| 20260503174505 | 70 | 158 | 0.0 | 10.0 | 0.00 | 0.00 | 0.00 | 40 | 1022.0 |
| 20260503173005 | 71 | 158 | 0.0 | 10.0 | 0.00 | 0.00 | 0.00 | 40 | 1022.0 |
| 20260503171505 | 72 | 158 | 0.0 | 10.0 | 0.00 | 0.00 | 0.00 | 40 | 1022.0 |
| 20260503081505 | 69 | 68 | 0.0 | 1.0 | 0.00 | 0.00 | 0.00 | 37 | 1027.0 |
| 20260503071505 | 64 | 45 | 0.0 | 1.0 | 0.00 | 0.00 | 0.00 | 38 | 1027.0 |
| 20260503054505 | 55 | 225 | 0.0 | 0.0 | 0.00 | 0.00 | 0.00 | 39 | 1027.0 |
| 20260503053005 | 53 | 225 | 0.0 | 0.0 | 0.00 | 0.00 | 0.00 | 39 | 1027.0 |
| 20260503051505 | 51 | 225 | 0.0 | 0.0 | 0.00 | 0.00 | 0.00 | 37 | 1027.0 |
| 20260503050005 | 51 | 225 | 0.0 | 0.0 | 0.00 | 0.00 | 0.00 | 36 | 1027.0 |
| 20260503044505 | 51 | 225 | 0.0 | 83.0 | 0.00 | 0.00 | 0.00 | 36 | 1027.0 |
| 20260503043005 | 50 | 225 | 0.0 | 83.0 | 0.00 | 0.00 | 0.00 | 36 | 1027.0 |
| 20260503041505 | 48 | 225 | 0.0 | 83.0 | 0.00 | 0.00 | 0.00 | 35 | 1027.0 |
| 20260503040005 | 48 | 225 | 0.0 | 83.0 | 0.00 | 0.00 | 0.00 | 35 | 1027.0 |
| 20260503034505 | 49 | 225 | 0.0 | 83.0 | 0.00 | 0.00 | 0.00 | 35 | 1027.0 |
| 20260503033005 | 49 | 225 | 0.0 | 83.0 | 0.00 | 0.00 | 0.00 | 35 | 1027.0 |
| 20260503031505 | 48 | 225 | 0.0 | 83.0 | 0.00 | 0.00 | 0.00 | 35 | 1027.0 |
| 20260503030005 | 48 | 225 | 0.0 | 83.0 | 0.00 | 0.00 | 0.00 | 35 | 1027.0 |
| 20260503024505 | 48 | 225 | 0.0 | 83.0 | 0.00 | 0.00 | 0.00 | 36 | 1027.0 |
| 20260503023005 | 48 | 225 | 0.0 | 83.0 | 0.00 | 0.00 | 0.00 | 38 | 1027.0 |
| 20260503021505 | 49 | 225 | 0.0 | 83.0 | 0.00 | 0.00 | 0.00 | 43 | 1027.0 |
| 20260503020005 | 50 | 225 | 0.0 | 83.0 | 0.00 | 0.00 | 0.00 | 43 | 1027.0 |
| 20260503014505 | 50 | 225 | 0.0 | 83.0 | 0.00 | 0.00 | 0.00 | 43 | 1027.0 |
| 20260503013005 | 49 | 180 | 0.0 | 83.0 | 0.00 | 0.00 | 0.00 | 43 | 1027.0 |
| 20260503011505 | 51 | 180 | 0.0 | 83.0 | 0.00 | 0.00 | 0.00 | 42 | 1027.0 |
| 20260503010005 | 51 | 180 | 0.0 | 83.0 | 0.00 | 0.00 | 0.00 | 42 | 1027.0 |
| 20260503004505 | 51 | 180 | 0.0 | 83.0 | 0.00 | 0.00 | 0.00 | 42 | 1028.0 |
| 20260503003005 | 52 | 180 | 0.0 | 83.0 | 0.00 | 0.00 | 0.00 | 42 | 1028.0 |
| 20260503001505 | 52 | 180 | 0.0 | 83.0 | 0.00 | 0.00 | 0.00 | 42 | 1028.0 |
| 20260503000005 | 52 | 180 | 0.0 | 83.0 | 0.00 | 0.00 | 0.00 | 42 | 1028.0 |
| 20260502234505 | 53 | 180 | 0.0 | 83.0 | 0.00 | 0.00 | 0.00 | 41 | 1028.0 |
| 20260502233005 | 53 | 180 | 0.0 | 83.0 | 0.00 | 0.00 | 0.00 | 41 | 1028.0 |
| 20260502231505 | 54 | 180 | 0.0 | 83.0 | 0.00 | 0.00 | 0.00 | 41 | 1029.0 |
| 20260502230005 | 54 | 180 | 0.0 | 83.0 | 0.00 | 0.00 | 0.00 | 41 | 1029.0 |
| 20260502224505 | 55 | 180 | 0.0 | 83.0 | 0.00 | 0.00 | 0.00 | 40 | 1029.0 |
| 20260502223005 | 56 | 180 | 0.0 | 83.0 | 0.00 | 0.00 | 0.00 | 40 | 1029.0 |
| 20260502221505 | 55 | 180 | 0.0 | 83.0 | 0.00 | 0.00 | 0.00 | 40 | 1029.0 |
| 20260502220005 | 57 | 180 | 0.0 | 83.0 | 0.00 | 0.00 | 0.00 | 39 | 1029.0 |